Starlink 35497

operational
NORAD ID: 66242 Int'l Des: 2025-245 Owner: SPXS Country: US Constellation: starlink
LEOCIRCULAR

关于 Starlink 35497

正在加载描述...

实时位置

正在加载3D地球...

即将过境

高度历史

Altitude vs Time

uPlot chart will show altitude changes over time

两行轨道根数

1 66242C 25245H 25303.08034722 .00481040 00000+0 75864-3 0 3035
2 66242 53.1599 182.3159 0005102 303.0791 161.3811 16.02640538 11
Epoch: Oct 30, 2025 • Age: 28 hours

当前状态

高度 267.5 km
速度 7.75 km/s
星下点 19.41°N, 111.76°W
发射日期 Oct 29, 2025
运行时间 1 days
类型 internet

技术详情

分类 Payload
质量 575.00 kg
干质量 530.00 kg
总质量 575.00 kg
长度 0.30 m
直径 4.10 m
跨度 29.00 m
形状 Box + pan
制造商 SPXS
平台类型 Starlink V2MO
阶段状态 In Orbit
所有者/国家 SPXS/US

大型星座

Loading constellations...